Location: Parc des �les de St-Timoth�e
(45.2924°N, 74.0481°W)
Time: 10:11:52
(UTC-04:00)

ISS - All Passes

Search period start: 22 September 2014 00:00
Search period end: 02 October 2014 00:00
Orbit: 413 x 416 km, 51.6° (Epoch: 22 September)

Date Brightness Start Highest point End Pass type
(mag) Time Alt. Az. Time Alt. Az. Time Alt. Az.
22 Sep - 01:38:45 10° S 01:41:23 22° SE 01:44:01 10° E night (unlit)
22 Sep - 03:14:32 10° WSW 03:17:50 63° NNW 03:21:10 10° ENE visible
22 Sep - 04:52:04 10° WNW 04:54:58 27° N 04:57:53 10° NE visible
22 Sep - 06:29:12 10° NW 06:32:17 34° NNE 06:35:22 10° E daylight
22 Sep - 08:05:52 10° WNW 08:09:10 63° SSW 08:12:27 10° SE daylight
23 Sep - 00:50:59 10° SSE 00:52:39 13° SE 00:54:20 10° ESE night (unlit)
23 Sep - 02:25:34 10° WSW 02:28:54 85° SSE 02:32:15 10° ENE night (unlit)
23 Sep - 04:02:53 10° WNW 04:05:54 30° N 04:08:54 10° NE visible
23 Sep - 05:40:15 10° NW 05:43:13 29° N 05:46:11 10° ENE visible
23 Sep - 07:16:55 10° WNW 07:20:16 82° NNE 07:23:35 10° ESE daylight
23 Sep - 08:54:28 10° W 08:56:35 16° SW 08:58:42 10° S daylight
24 Sep - 01:36:44 10° SW 01:39:59 52° SE 01:43:15 10° ENE night (unlit)
24 Sep - 03:13:41 10° W 03:16:48 36° NNW 03:19:56 10° NE visible
24 Sep - 04:51:12 10° NW 04:54:06 26° N 04:56:59 10° ENE visible
24 Sep - 06:27:59 10° NW 06:31:16 55° NNE 06:34:32 10° ESE daylight
24 Sep - 08:04:58 10° W 08:07:48 26° SW 08:10:37 10° SSE daylight
25 Sep - 00:48:06 10° SSW 00:51:06 32° SE 00:54:06 10° ENE night (unlit)
25 Sep - 02:24:28 10° W 02:27:43 48° NNW 02:30:58 10° NE night (unlit)
25 Sep - 04:02:03 10° WNW 04:04:55 26° N 04:07:48 10° ENE visible
25 Sep - 05:39:00 10° NW 05:42:11 40° NNE 05:45:21 10° E visible
25 Sep - 07:15:45 10° WNW 07:18:55 42° SW 07:22:05 10° SE daylight
25 Sep - 23:59:45 10° S 00:02:13 20° SE 00:04:42 10° E night (unlit)
26 Sep - 01:35:19 10° WSW 01:38:38 69° NNW 01:41:58 10° ENE night (unlit)
26 Sep - 03:12:48 10° WNW 03:15:44 28° N 03:18:40 10° NE visible
26 Sep - 04:49:59 10° NW 04:53:02 32° NNE 04:56:05 10° E visible
26 Sep - 06:26:38 10° WNW 06:29:57 71° SSW 06:33:15 10° SE daylight
26 Sep - 08:05:19 10° WSW 08:06:06 11° SW 08:06:53 10° SW daylight
26 Sep - 23:12:05 10° SSE 23:13:23 12° SE 23:14:40 10° ESE night (unlit)
27 Sep - 00:46:15 10° SW 00:49:34 77° SSE 00:52:54 10° ENE night (unlit)
27 Sep - 02:23:29 10° WNW 02:26:30 31° NNW 02:29:33 10° NE night (unlit)
27 Sep - 04:00:52 10° NW 04:03:49 28° N 04:06:46 10° ENE visible
27 Sep - 05:37:33 10° WNW 05:40:53 75° NNE 05:44:13 10° ESE visible
27 Sep - 07:14:55 10° W 07:17:15 18° SW 07:19:35 10° S daylight
27 Sep - 23:57:19 10° SW 00:00:31 47° SE 00:03:44 10° ENE night (unlit)
28 Sep - 01:34:08 10° W 01:37:17 38° NNW 01:40:27 10° NE night (unlit)
28 Sep - 03:11:40 10° WNW 03:14:33 26° N 03:17:26 10° ENE visible
28 Sep - 04:48:28 10° NW 04:51:45 51° NNE 04:55:00 10° E visible
28 Sep - 06:25:23 10° WNW 06:28:19 29° SW 06:31:14 10° SSE daylight
28 Sep - 23:08:36 10° SSW 23:11:30 28° SE 23:14:25 10° ENE night (unlit)
29 Sep - 00:44:48 10° W 00:48:04 52° NNW 00:51:20 10° NE night (unlit)
29 Sep - 02:22:21 10° WNW 02:25:15 26° N 02:28:08 10° ENE night (unlit)
29 Sep - 03:59:22 10° NW 04:02:31 38° NNE 04:05:39 10° E visible
29 Sep - 05:36:03 10° WNW 05:39:17 48° SW 05:42:29 10° SE visible
29 Sep - 22:20:13 10° S 22:22:30 17° SE 22:24:48 10° E night (unlit)
29 Sep - 23:55:31 10° WSW 23:58:51 76° NNW 00:02:12 10° ENE night (unlit)
30 Sep - 01:32:57 10° WNW 01:35:54 28° N 01:38:51 10° NE night (unlit)
30 Sep - 03:10:11 10° NW 03:13:13 31° NNE 03:16:14 10° ENE visible
30 Sep - 04:46:49 10° WNW 04:50:09 79° SSW 04:53:29 10° SE visible
30 Sep - 06:24:57 10° WSW 06:26:21 12° SW 06:27:44 10° SSW visible
30 Sep - 21:33:01 10° SE 21:33:32 10° SE 21:34:03 10° ESE night (unlit)
30 Sep - 23:06:21 10° SW 23:09:40 69° SSE 23:12:59 10° ENE night (unlit)
01 Oct - 00:43:30 10° W 00:46:33 33° NNW 00:49:37 10° NE night (unlit)
01 Oct - 02:20:55 10° NW 02:23:51 27° N 02:26:46 10° ENE night (unlit)
01 Oct - 03:57:37 10° WNW 04:00:56 67° NNE 04:04:15 10° ESE visible
01 Oct - 05:34:49 10° W 05:37:21 20° SW 05:39:52 10° S visible
01 Oct - 22:17:20 10° SW 22:20:29 41° SE 22:23:39 10° ENE night (unlit)
01 Oct - 23:54:01 10° W 23:57:12 41° NNW 00:00:00 13° NE night (unlit)
